AAL598 KSFO-KLAS

Flight info

Callsign AAL598
Flight time 1h 3m
Altitude 31000
Route WESLA5 NTELL Q174 FLCHR COKTL4
Aircraft A319/M-SDE3FGHIRWY/LB1

Departure

Time 2026-05-04 03:34
Airport San Francisco International Airport (KSFO)

Arrival

Time 2026-05-04 04:38
Airport Harry Reid International Airport (KLAS)
Time Latitude Longitude Altitude Speed Heading
2026-05-04 03:18 37.61033 -122.38560 22 ft 0 kts 307°
2026-05-04 03:27 37.61030 -122.38554 22 ft 3 kts 307°
2026-05-04 03:28 37.61019 -122.38537 22 ft 3 kts 307°
2026-05-04 03:28 37.61007 -122.38522 24 ft 2 kts
2026-05-04 03:28 37.61002 -122.38521 23 ft 1 kts 31°
2026-05-04 03:28 37.61016 -122.38511 23 ft 3 kts 32°
2026-05-04 03:29 37.61041 -122.38476 23 ft 8 kts 56°
2026-05-04 03:29 37.61088 -122.38386 22 ft 17 kts 57°
2026-05-04 03:29 37.61132 -122.38230 22 ft 21 kts 43°
2026-05-04 03:29 37.61277 -122.38130 22 ft 25 kts 27°
2026-05-04 03:30 37.61436 -122.38025 22 ft 26 kts 27°
2026-05-04 03:30 37.61601 -122.37917 23 ft 27 kts 27°
2026-05-04 03:30 37.61666 -122.37722 25 ft 27 kts 100°
2026-05-04 03:30 37.61639 -122.37483 22 ft 28 kts 96°
2026-05-04 03:31 37.61604 -122.37238 24 ft 29 kts 110°
2026-05-04 03:31 37.61510 -122.37014 22 ft 29 kts 120°
2026-05-04 03:31 37.61389 -122.36807 22 ft 30 kts 131°
2026-05-04 03:31 37.61285 -122.36583 22 ft 30 kts 117°
2026-05-04 03:32 37.61187 -122.36349 24 ft 30 kts 118°
2026-05-04 03:32 37.61085 -122.36112 24 ft 31 kts 118°
2026-05-04 03:32 37.61097 -122.35910 24 ft 22 kts 34°
2026-05-04 03:32 37.61217 -122.35949 23 ft 20 kts 305°
2026-05-04 03:33 37.61268 -122.36073 23 ft 15 kts 297°
2026-05-04 03:33 37.61336 -122.36232 24 ft 43 kts 298°
2026-05-04 03:33 37.61617 -122.36910 22 ft 130 kts 297°
2026-05-04 03:33 37.62147 -122.38167 142 ft 184 kts 295°
2026-05-04 03:34 37.62683 -122.39360 559 ft 205 kts 297°
2026-05-04 03:34 37.63381 -122.40871 1021 ft 228 kts 297°
2026-05-04 03:34 37.64154 -122.42622 1981 ft 234 kts 294°
2026-05-04 03:34 37.64479 -122.44667 2732 ft 245 kts 264°
2026-05-04 03:35 37.63917 -122.46705 3641 ft 252 kts 234°
2026-05-04 03:35 37.62556 -122.48110 4582 ft 260 kts 202°
2026-05-04 03:35 37.60767 -122.48410 5580 ft 262 kts 175°
2026-05-04 03:35 37.58944 -122.48253 6655 ft 264 kts 174°
2026-05-04 03:36 37.57090 -122.48093 7597 ft 269 kts 174°
2026-05-04 03:36 37.55273 -122.47542 8538 ft 272 kts 153°
2026-05-04 03:36 37.53714 -122.46206 9507 ft 276 kts 142°
2026-05-04 03:36 37.52183 -122.44707 10303 ft 286 kts 142°
2026-05-04 03:37 37.50551 -122.43096 10654 ft 310 kts 142°
2026-05-04 03:37 37.48790 -122.41363 11053 ft 330 kts 142°
2026-05-04 03:37 37.46957 -122.39565 11770 ft 338 kts 141°
2026-05-04 03:37 37.45088 -122.37736 12553 ft 343 kts 141°
2026-05-04 03:38 37.43242 -122.35808 13295 ft 348 kts 135°
2026-05-04 03:38 37.41702 -122.33437 14037 ft 353 kts 122°
2026-05-04 03:38 37.40594 -122.30668 14758 ft 357 kts 110°
2026-05-04 03:38 37.39934 -122.27660 15533 ft 359 kts 104°
2026-05-04 03:39 37.39341 -122.24603 16261 ft 362 kts 104°
2026-05-04 03:39 37.38731 -122.21517 16993 ft 365 kts 104°
2026-05-04 03:39 37.38107 -122.18405 17688 ft 369 kts 105°
2026-05-04 03:39 37.37474 -122.15261 18322 ft 374 kts 104°
2026-05-04 03:40 37.36833 -122.12076 18964 ft 376 kts 104°
2026-05-04 03:40 37.36189 -122.08869 19592 ft 379 kts 105°
2026-05-04 03:40 37.35544 -122.05647 20215 ft 382 kts 105°
2026-05-04 03:40 37.34895 -122.02388 20805 ft 386 kts 105°
2026-05-04 03:41 37.34238 -121.99101 21339 ft 391 kts 105°
2026-05-04 03:41 37.33570 -121.95768 21892 ft 395 kts 105°
2026-05-04 03:41 37.32894 -121.92409 22448 ft 398 kts 105°
2026-05-04 03:41 37.32211 -121.89029 23021 ft 401 kts 105°
2026-05-04 03:42 37.31522 -121.85614 23550 ft 404 kts 105°
2026-05-04 03:42 37.30828 -121.82176 23985 ft 408 kts 105°
2026-05-04 03:42 37.30127 -121.78709 24408 ft 410 kts 105°
2026-05-04 03:42 37.29422 -121.75229 24882 ft 412 kts 105°
2026-05-04 03:43 37.28928 -121.72789 25171 ft 414 kts 105°
2026-05-04 03:43 37.28213 -121.69270 25571 ft 417 kts 105°
2026-05-04 03:43 37.27491 -121.65726 25986 ft 421 kts 105°
2026-05-04 03:43 37.26761 -121.62159 26375 ft 424 kts 105°
2026-05-04 03:44 37.26033 -121.58599 26685 ft 430 kts 106°
2026-05-04 03:44 37.25278 -121.54923 26899 ft 438 kts 106°
2026-05-04 03:44 37.24512 -121.51197 27209 ft 443 kts 107°
2026-05-04 03:44 37.23741 -121.47441 27546 ft 447 kts 107°
2026-05-04 03:45 37.22963 -121.43647 27917 ft 451 kts 107°
2026-05-04 03:45 37.22180 -121.39826 28259 ft 454 kts 107°
2026-05-04 03:45 37.21389 -121.35973 28585 ft 458 kts 107°
2026-05-04 03:45 37.20586 -121.32089 28946 ft 461 kts 107°
2026-05-04 03:46 37.19775 -121.28183 29281 ft 465 kts 107°
2026-05-04 03:46 37.18952 -121.24243 29599 ft 468 kts 107°
2026-05-04 03:46 37.18123 -121.20283 30007 ft 470 kts 107°
2026-05-04 03:46 37.17292 -121.16303 30203 ft 476 kts 108°
2026-05-04 03:47 37.16446 -121.12260 30379 ft 481 kts 108°
2026-05-04 03:47 37.15600 -121.08195 30671 ft 484 kts 108°
2026-05-04 03:47 37.14748 -121.04103 30897 ft 486 kts 108°
2026-05-04 03:48 37.13049 -120.95984 30950 ft 481 kts 108°
2026-05-04 03:48 37.11343 -120.87897 30957 ft 479 kts 108°
2026-05-04 03:49 37.09629 -120.79826 30960 ft 479 kts 108°
2026-05-04 03:49 37.07905 -120.71706 30953 ft 487 kts 110°
2026-05-04 03:50 37.06146 -120.63495 30953 ft 489 kts 109°
2026-05-04 03:50 37.04386 -120.55270 30942 ft 489 kts 109°
2026-05-04 03:51 37.02626 -120.47041 30931 ft 489 kts 110°
2026-05-04 03:51 37.00864 -120.38820 30922 ft 489 kts 110°
2026-05-04 03:52 36.99080 -120.30567 30955 ft 499 kts 111°
2026-05-04 03:52 36.97253 -120.22189 30951 ft 504 kts 111°
2026-05-04 03:53 36.95408 -120.13706 30951 ft 505 kts 111°
2026-05-04 03:53 36.93560 -120.05259 30956 ft 502 kts 110°
2026-05-04 03:54 36.91741 -119.96837 30934 ft 503 kts 107°
2026-05-04 03:54 36.91284 -119.88039 30913 ft 520 kts 86°
2026-05-04 03:54 36.91948 -119.83540 30925 ft 532 kts 76°
2026-05-04 03:55 36.93195 -119.79161 30919 ft 536 kts 67°
2026-05-04 03:55 36.96018 -119.70594 30920 ft 537 kts 68°
2026-05-04 03:56 36.98844 -119.61921 30925 ft 537 kts 68°
2026-05-04 03:56 37.01631 -119.53325 30907 ft 528 kts 68°
2026-05-04 03:57 37.04361 -119.44886 30940 ft 520 kts 69°
2026-05-04 03:57 37.07059 -119.36509 30943 ft 518 kts 69°
2026-05-04 03:58 37.11105 -119.23983 30933 ft 516 kts 69°
2026-05-04 03:58 37.13796 -119.15647 30940 ft 516 kts 69°
2026-05-04 03:59 37.16447 -119.07363 30936 ft 515 kts 69°
2026-05-04 03:59 37.19097 -118.99012 30925 ft 515 kts 69°
2026-05-04 04:00 37.21752 -118.90674 30922 ft 514 kts 69°
2026-05-04 04:00 37.24411 -118.82331 30899 ft 514 kts 69°
2026-05-04 04:01 37.26978 -118.73957 30868 ft 514 kts 74°
2026-05-04 04:01 37.28207 -118.65186 30832 ft 509 kts 87°
2026-05-04 04:02 37.28879 -118.56359 30867 ft 507 kts 87°
2026-05-04 04:02 37.29554 -118.47542 30851 ft 507 kts 87°
2026-05-04 04:03 37.30121 -118.40096 30873 ft 522 kts 87°
2026-05-04 04:03 37.30801 -118.30995 30870 ft 524 kts 88°
2026-05-04 04:04 37.31475 -118.21881 30851 ft 524 kts 88°
2026-05-04 04:04 37.32151 -118.12750 30826 ft 525 kts 88°
2026-05-04 04:05 37.32816 -118.03640 30760 ft 523 kts 88°
2026-05-04 04:05 37.33469 -117.94555 30776 ft 521 kts 87°
2026-05-04 04:06 37.34107 -117.85552 30776 ft 520 kts 88°
2026-05-04 04:06 37.34739 -117.76508 30763 ft 519 kts 88°
2026-05-04 04:07 37.35368 -117.67476 30765 ft 518 kts 88°
2026-05-04 04:07 37.35991 -117.58455 30768 ft 518 kts 88°
2026-05-04 04:08 37.36609 -117.49432 30753 ft 518 kts 88°
2026-05-04 04:08 37.37213 -117.40412 30762 ft 517 kts 88°
2026-05-04 04:09 37.37063 -117.31464 30774 ft 508 kts 105°
2026-05-04 04:09 37.34819 -117.23224 30769 ft 491 kts 125°
2026-05-04 04:10 37.30899 -117.16425 30747 ft 475 kts 140°
2026-05-04 04:10 37.26501 -117.10305 30752 ft 476 kts 140°
2026-05-04 04:11 37.22055 -117.04133 30722 ft 477 kts 141°
2026-05-04 04:11 37.17593 -116.97949 30740 ft 479 kts 141°
2026-05-04 04:12 37.13107 -116.91740 30737 ft 481 kts 141°
2026-05-04 04:12 37.08328 -116.86021 30528 ft 466 kts 154°
2026-05-04 04:13 37.05667 -116.83719 30260 ft 465 kts 156°
2026-05-04 04:13 37.02987 -116.81427 30013 ft 468 kts 156°
2026-05-04 04:13 37.00295 -116.79130 29774 ft 469 kts 156°
2026-05-04 04:13 36.97595 -116.76827 29491 ft 469 kts 155°
2026-05-04 04:14 36.94895 -116.74521 29206 ft 470 kts 155°
2026-05-04 04:14 36.92201 -116.72212 28931 ft 470 kts 155°
2026-05-04 04:14 36.89507 -116.69898 28660 ft 470 kts 154°
2026-05-04 04:14 36.86846 -116.67613 28342 ft 471 kts 155°
2026-05-04 04:15 36.84103 -116.65262 28067 ft 472 kts 155°
2026-05-04 04:15 36.81428 -116.62975 27775 ft 472 kts 154°
2026-05-04 04:15 36.78714 -116.60659 27419 ft 473 kts 154°
2026-05-04 04:15 36.76008 -116.58350 27060 ft 469 kts 153°
2026-05-04 04:16 36.73324 -116.56063 26671 ft 465 kts 153°
2026-05-04 04:16 36.70669 -116.53804 26326 ft 461 kts 153°
2026-05-04 04:16 36.68029 -116.51559 25962 ft 458 kts 153°
2026-05-04 04:16 36.65454 -116.49208 25617 ft 461 kts 147°
2026-05-04 04:17 36.63166 -116.46374 25283 ft 466 kts 138°
2026-05-04 04:17 36.61042 -116.43350 24953 ft 463 kts 137°
2026-05-04 04:17 36.58928 -116.40340 24963 ft 459 kts 137°
2026-05-04 04:17 36.56812 -116.37339 24291 ft 463 kts 136°
2026-05-04 04:18 36.54715 -116.34370 23969 ft 452 kts 136°
2026-05-04 04:18 36.52654 -116.31464 23638 ft 447 kts 137°
2026-05-04 04:18 36.50587 -116.28562 23322 ft 448 kts 137°
2026-05-04 04:18 36.48528 -116.25672 22843 ft 442 kts 137°
2026-05-04 04:19 36.46486 -116.22805 22390 ft 444 kts 137°
2026-05-04 04:19 36.44446 -116.19941 21941 ft 441 kts 136°
2026-05-04 04:19 36.42435 -116.17110 21489 ft 432 kts 136°
2026-05-04 04:19 36.40495 -116.14378 21058 ft 423 kts 136°
2026-05-04 04:20 36.38568 -116.11663 20665 ft 415 kts 136°
2026-05-04 04:20 36.36682 -116.09006 20381 ft 405 kts 136°
2026-05-04 04:20 36.34829 -116.06405 20133 ft 399 kts 136°
2026-05-04 04:20 36.32992 -116.03839 19901 ft 396 kts 136°
2026-05-04 04:21 36.31168 -116.01298 19468 ft 395 kts 136°
2026-05-04 04:21 36.29342 -115.98761 19111 ft 390 kts 136°
2026-05-04 04:21 36.27565 -115.96282 18909 ft 380 kts 135°
2026-05-04 04:21 36.25838 -115.93872 18784 ft 367 kts 135°
2026-05-04 04:22 36.24186 -115.91514 18571 ft 358 kts 134°
2026-05-04 04:22 36.22646 -115.89150 18447 ft 347 kts 132°
2026-05-04 04:22 36.21191 -115.86813 18355 ft 338 kts 131°
2026-05-04 04:22 36.19790 -115.84528 18202 ft 329 kts 131°
2026-05-04 04:23 36.18408 -115.82285 17887 ft 325 kts 131°
2026-05-04 04:23 36.17030 -115.80072 17476 ft 325 kts 132°
2026-05-04 04:23 36.15647 -115.77866 17071 ft 324 kts 132°
2026-05-04 04:23 36.14298 -115.75629 16703 ft 324 kts 126°
2026-05-04 04:24 36.13281 -115.73139 16376 ft 326 kts 115°
2026-05-04 04:24 36.12480 -115.70522 16048 ft 324 kts 115°
2026-05-04 04:24 36.11683 -115.67922 15739 ft 321 kts 115°
2026-05-04 04:24 36.10900 -115.65365 15550 ft 315 kts 115°
2026-05-04 04:25 36.10125 -115.62848 15267 ft 312 kts 115°
2026-05-04 04:25 36.09353 -115.60344 14985 ft 311 kts 115°
2026-05-04 04:25 36.08585 -115.57857 14700 ft 309 kts 115°
2026-05-04 04:25 36.07817 -115.55376 14233 ft 312 kts 114°
2026-05-04 04:26 36.07022 -115.52821 13610 ft 322 kts 114°
2026-05-04 04:26 36.06218 -115.50232 13208 ft 323 kts 114°
2026-05-04 04:26 36.05412 -115.47636 12864 ft 324 kts 114°
2026-05-04 04:26 36.04606 -115.45032 12536 ft 324 kts 114°
2026-05-04 04:27 36.03806 -115.42444 12226 ft 322 kts 115°
2026-05-04 04:27 36.03010 -115.39868 11903 ft 320 kts 115°
2026-05-04 04:27 36.02215 -115.37299 11572 ft 320 kts 115°
2026-05-04 04:27 36.01618 -115.34646 11249 ft 324 kts 103°
2026-05-04 04:28 36.01438 -115.31859 10912 ft 325 kts 96°
2026-05-04 04:28 36.01307 -115.29077 10599 ft 324 kts 97°
2026-05-04 04:28 36.01177 -115.26299 10270 ft 323 kts 97°
2026-05-04 04:28 36.01044 -115.23533 9948 ft 322 kts 97°
2026-05-04 04:29 36.00910 -115.20776 9614 ft 321 kts 97°
2026-05-04 04:29 36.00776 -115.18061 9425 ft 308 kts 97°
2026-05-04 04:29 36.00652 -115.15508 9321 ft 290 kts 98°
2026-05-04 04:29 36.00532 -115.13074 9191 ft 279 kts 98°
2026-05-04 04:30 36.00418 -115.10755 9072 ft 269 kts 98°
2026-05-04 04:30 36.00300 -115.08448 8633 ft 272 kts 98°
2026-05-04 04:30 36.00177 -115.06121 8331 ft 269 kts 98°
2026-05-04 04:30 36.00102 -115.03831 8125 ft 265 kts 95°
2026-05-04 04:31 36.00065 -115.01557 7999 ft 264 kts 95°
2026-05-04 04:31 36.00022 -114.99275 7624 ft 266 kts 96°
2026-05-04 04:31 36.00006 -114.96993 7203 ft 264 kts 96°
2026-05-04 04:31 35.99993 -114.94747 6825 ft 258 kts 95°
2026-05-04 04:32 35.99984 -114.92551 6448 ft 254 kts 93°
2026-05-04 04:32 36.00408 -114.90446 6064 ft 257 kts 64°
2026-05-04 04:32 36.01632 -114.88842 5672 ft 261 kts 32°
2026-05-04 04:32 36.03326 -114.88079 5232 ft 259 kts
2026-05-04 04:33 36.05077 -114.88346 4797 ft 253 kts 332°
2026-05-04 04:33 36.06452 -114.89592 4511 ft 237 kts 301°
2026-05-04 04:33 36.07184 -114.91250 4484 ft 208 kts 278°
2026-05-04 04:33 36.07359 -114.92904 4470 ft 187 kts 260°
2026-05-04 04:34 36.07357 -114.94536 4476 ft 191 kts 261°
2026-05-04 04:34 36.07360 -114.96163 4449 ft 188 kts 261°
2026-05-04 04:34 36.07361 -114.97781 4305 ft 187 kts 261°
2026-05-04 04:34 36.07364 -114.99361 4074 ft 179 kts 261°
2026-05-04 04:35 36.07366 -115.00863 3860 ft 171 kts 262°
2026-05-04 04:35 36.07366 -115.02315 3659 ft 166 kts 266°
2026-05-04 04:35 36.07366 -115.03713 3453 ft 159 kts 266°
2026-05-04 04:35 36.07367 -115.05042 3265 ft 151 kts 265°
2026-05-04 04:36 36.07368 -115.06278 3109 ft 140 kts 263°
2026-05-04 04:36 36.07367 -115.07506 2925 ft 144 kts 263°
2026-05-04 04:36 36.07370 -115.08718 2683 ft 144 kts 263°
2026-05-04 04:36 36.07387 -115.09945 2558 ft 143 kts 261°
2026-05-04 04:37 36.07365 -115.13485 2074 ft 110 kts 268°
2026-05-04 04:37 36.07365 -115.14254 2087 ft 64 kts 275°
2026-05-04 04:38 36.07456 -115.14570 2094 ft 28 kts 300°
2026-05-04 04:38 36.07577 -115.14656 2101 ft 19 kts 357°
2026-05-04 04:38 36.07715 -115.14648 2099 ft 21 kts 13°
2026-05-04 04:38 36.07767 -115.14489 2097 ft 23 kts 96°
2026-05-04 04:39 36.07755 -115.14287 2096 ft 24 kts 92°
2026-05-04 04:39 36.07818 -115.14114 2094 ft 23 kts 70°
2026-05-04 04:39 36.07890 -115.13943 2093 ft 24 kts 45°
2026-05-04 04:39 36.08018 -115.13933 2093 ft 13 kts 314°
2026-05-04 04:40 36.08025 -115.13941 2093 ft 0 kts 314°